Hourly Data Report for September 04, 2017

All times are specified in Local Standard Time (LST). Add 1 hour to adjust for Daylight Saving Time where and when it is observed.

IQALUIT CLIMATE
NUNAVUT

63°44'50.000" N
68°32'40.000" W
33.50 m
2402592
71321
XFB

Download Data

Hourly Data (September 2017)
Hourly Data Report for September 4, 2017
Temp Definition
°C
Dew Point Temp Definition
°C
Rel Hum Definition
%
Wind Dir Definition
10's deg

Wind Spd Definition
km/h
Visibility Definition
km
Stn Press Definition
kPa
Hmdx Definition


Wind Chill Definition


Weather Definition


TIME
00:00 3.4 2.8 96 16 21   100.06     LegendNANA
01:00 3.4 2.7 95 15 20   100.08     LegendNANA
02:00 3.5 2.9 96 13 11   100.10     LegendNANA
03:00 3.2 2.7 97 15 13   100.10     LegendNANA
04:00 3.3 2.8 97 14 8   100.12     LegendNANA
05:00 3.3 2.8 97 12 6   100.19     LegendNANA
06:00 3.5 3.0 97 15 9   100.20     LegendNANA
07:00 3.5 3.0 97 14 9   100.26     LegendNANA
08:00 3.3 2.9 97 16 15   100.26     LegendNANA
09:00 3.1 2.6 97 15 18   100.28     LegendNANA
10:00 3.3 2.9 97 16 13   100.32     LegendNANA
11:00 3.4 2.9 97 15 20   100.33     LegendNANA
12:00 3.4 2.8 96 15 20   100.34     LegendNANA
13:00 3.0 2.3 95 16 19   100.37     LegendNANA
14:00 3.2 2.5 95 15 22   100.40     LegendNANA
15:00 3.6 2.5 93 13 18   100.42     LegendNANA
16:00 3.7 2.7 93 14 14   100.44     LegendNANA
17:00 3.9 3.0 94 15 11   100.47     LegendNANA
18:00 3.4 2.7 96 13 14   100.51     LegendNANA
19:00 3.4 2.7 95 12 10   100.54     LegendNANA
20:00 3.5 2.4 92 13 15   100.56     LegendNANA
21:00 3.1 2.4 95 13 16   100.58     LegendNANA
22:00 2.9 2.2 95 13 15   100.56     LegendNANA
23:00 2.8 1.8 93 13 15   100.56     LegendNANA

Notes on Data Quality.

Legend

  • E = Estimated
  • M = Missing
  • NA = Not Available
  • ‡ = Partner data that is not subject to review by the National Climate Archives
Date modified: